KB2UHF-8 Weather Reports


time (UTC)temp
C
wind
direction
speed
KPH
gust
KPH
rain 1hr
cm
rain 24hr
cm
rain mn
cm
humidity
%
barometer
mb
20260504035515 15 248 3.2 4.8 0.00 0.00 0.00 45 1005.2
20260504034516 15 270 3.2 6.4 0.00 0.00 0.00 45 1005.4
20260504033515 14 270 3.2 4.8 0.00 0.00 0.00 46 1005.3
20260504032515 14 270 3.2 4.8 0.00 0.00 0.00 46 1005.4
20260504031515 14 270 3.2 4.8 0.00 0.00 0.00 46 1005.5
20260504030515 15 270 3.2 4.8 0.00 0.00 0.00 45 1005.5
20260504025515 15 270 3.2 6.4 0.00 0.00 0.00 44 1005.5
20260504024536 15 270 3.2 6.4 0.00 0.00 0.00 44 1005.6
20260504023516 15 270 3.2 4.8 0.00 0.00 0.00 43 1005.4
20260504022515 16 270 3.2 9.7 0.00 0.00 0.00 43 1005.3
20260504021516 16 270 3.2 6.4 0.00 0.00 0.00 40 1005.3
20260504020535 16 248 3.2 4.8 0.00 0.00 0.00 40 1005.2
20260504015515 16 248 3.2 9.7 0.00 0.00 0.00 40 1005.2
20260504014516 16 270 1.6 4.8 0.00 0.00 0.00 40 1005.0
20260504013535 17 0.0 3.2 0.00 0.00 0.00 39 1004.9
20260504012515 17 270 1.6 4.8 0.00 0.00 0.00 39 1004.9
20260504011515 17 270 3.2 11.3 0.00 0.00 0.00 38 1004.8
20260504010515 18 270 3.2 9.7 0.00 0.00 0.00 38 1004.8
20260504005555 18 270 4.8 9.7 0.00 0.00 0.00 37 1004.8
20260504004515 19 270 6.4 12.9 0.00 0.00 0.00 34 1004.8
20260504003515 20 293 8.0 19.3 0.00 0.00 0.00 35 1005.1
20260504002515 20 293 4.8 9.7 0.00 0.00 0.00 36 1004.9
20260504001515 20 315 6.4 12.9 0.00 0.00 0.00 36 1004.9
20260504000515 20 315 6.4 17.7 0.00 0.00 0.00 35 1005.0
20260503235515 20 293 9.7 17.7 0.00 0.00 0.00 35 1004.8
20260503234515 21 315 9.7 19.3 0.00 0.00 0.00 33 1004.7
20260503233555 21 293 8.0 20.9 0.00 0.00 0.00 31 1004.7
20260503232515 21 315 11.3 20.9 0.00 0.00 0.00 32 1004.6
20260503231617 21 315 9.7 19.3 0.00 0.00 0.00 33 1004.6
20260503230557 21 293 11.3 19.3 0.00 0.00 0.00 32 1004.6
20260503225515 21 315 8.0 19.3 0.00 0.00 0.00 33 1004.5
20260503224517 21 315 14.5 22.5 0.00 0.00 0.00 34 1004.4
20260503223517 21 315 9.7 17.7 0.00 0.00 0.00 35 1004.5
20260503222517 21 293 11.3 27.4 0.00 0.00 0.00 35 1004.5
20260503221517 21 293 12.9 20.9 0.00 0.00 0.00 33 1004.4
20260503220517 22 270 8.0 17.7 0.00 0.00 0.00 33 1004.5
20260503215517 21 270 8.0 20.9 0.00 0.00 0.00 39 1004.5
20260503214517 21 270 12.9 20.9 0.00 0.00 0.00 33 1004.6
20260503213517 21 270 14.5 27.4 0.00 0.00 0.00 34 1004.6
20260503212517 21 293 14.5 24.1 0.00 0.00 0.00 33 1004.6
20260503211519 21 270 11.3 19.3 0.00 0.00 0.00 37 1004.5
20260503210517 21 270 8.0 20.9 0.00 0.00 0.00 36 1004.8
20260503205517 21 270 8.0 16.1 0.00 0.00 0.00 39 1004.8
20260503204519 21 338 11.3 22.5 0.00 0.00 0.00 39 1004.9
20260503203517 21 270 8.0 17.7 0.00 0.00 0.00 39 1005.1
20260503202517 20 270 12.9 27.4 0.00 0.00 0.00 39 1005.0
20260503201517 20 270 16.1 27.4 0.00 0.00 0.00 39 1005.2
20260503200517 20 248 9.7 22.5 0.00 0.00 0.00 40 1005.3
20260503195517 20 270 12.9 22.5 0.00 0.00 0.00 41 1005.3
20260503194517 20 270 14.5 25.7 0.00 0.00 0.00 40 1005.3
20260503193517 19 293 12.9 20.9 0.00 0.00 0.00 40 1005.4
20260503192537 20 225 9.7 20.9 0.00 0.00 0.00 42 1005.6
20260503191517 19 248 12.9 24.1 0.00 0.00 0.00 42 1005.6
20260503190537 19 225 8.0 17.7 0.00 0.00 0.00 42 1005.7
20260503185517 18 225 11.3 24.1 0.00 0.00 0.00 44 1005.7
20260503184517 18 248 11.3 24.1 0.00 0.00 0.00 44 1005.7
20260503183517 18 225 9.7 20.9 0.00 0.00 0.00 50 1005.8
20260503182517 17 270 12.9 22.5 0.00 0.00 0.00 44 1005.9
20260503181517 17 248 12.9 24.1 0.00 0.00 0.00 48 1005.9
20260503180557 17 248 14.5 29.0 0.00 0.00 0.00 45 1006.0
20260503175517 17 225 12.9 25.7 0.00 0.00 0.00 46 1006.2
20260503174537 17 225 9.7 22.5 0.00 0.00 0.00 50 1006.1
20260503173517 17 225 8.0 16.1 0.00 0.00 0.00 49 1006.2
20260503172517 16 270 12.9 29.0 0.00 0.00 0.00 48 1006.3
20260503171537 16 248 16.1 27.4 0.00 0.00 0.00 46 1006.6
20260503170537 16 270 9.7 27.4 0.00 0.00 0.00 50 1006.7
20260503150518 15 225 11.3 27.4 0.00 0.00 0.00 51 1007.2
20260503130518 11 203 9.7 24.1 0.00 0.00 0.00 62 1008.3
20260503110516 10 225 11.3 27.4 0.00 0.00 0.00 63 1009.5
20260503081516 10 225 9.7 19.3 0.00 0.00 0.00 49 1011.0
20260503080516 10 225 11.3 24.1 0.00 0.00 0.00 49 1011.1
20260503072516 10 225 8.0 16.1 0.00 0.00 0.00 49 1011.2
20260503071516 10 225 8.0 16.1 0.00 0.00 0.00 50 1011.4
20260503070616 10 225 6.4 14.5 0.00 0.00 0.00 50 1011.5
20260503054536 9 225 8.0 17.7 0.00 0.00 0.00 50 1012.1
20260503053516 9 225 6.4 17.7 0.00 0.00 0.00 50 1012.2
20260503052537 9 225 6.4 16.1 0.00 0.00 0.00 50 1012.2
20260503051536 10 225 6.4 11.3 0.00 0.00 0.00 50 1012.3
20260503050536 10 225 8.0 16.1 0.00 0.00 0.00 49 1012.2
20260503045516 10 225 6.4 14.5 0.00 0.00 0.00 49 1012.3
20260503044516 10 225 6.4 12.9 0.00 0.00 0.00 49 1012.4
20260503043517 10 225 6.4 14.5 0.00 0.00 0.00 49 1012.5
20260503042536 10 225 6.4 12.9 0.00 0.00 0.00 49 1012.7
20260503041516 10 225 6.4 14.5 0.00 0.00 0.00 50 1012.7
20260503040516 10 225 6.4 12.9 0.00 0.00 0.00 49 1012.8